Mitchell, SD

10:54 PM CDT on July 27, 2016 (GMT -0500)
Mitchell Municipal

Weather History for KMHE - December, 2012

Change the Weather History Date:

Sunday, December 23, 2012

  Actual Average Record
Temperature  
Mean Temperature 8 °F 19 °F  
Max Temperature 15 °F 28 °F 57 °F (1936)
Min Temperature 0 °F 11 °F -30 °F (1990)
Degree Days  
Heating Degree Days 57 46  
Month to date heating degree days 882 998  
Since 1 July heating degree days 2408 2566  
Cooling Degree Days 0 0  
Month to date cooling degree days 0 0  
Year to date cooling degree days 1236 824  
Moisture  
Dew Point 5 °F    
Average Humidity 83    
Maximum Humidity 93    
Minimum Humidity 73    
Precipitation  
Precipitation T in 0.01 in 0.88 in (1987)
Month to date precipitation 0.85 0.36  
Year to date precipitation 22.01 21.43  
Snow  
Snow T in - 12.00 in (1987)
Month to date snowfall 5.1  
Since 1 July snowfall 5.8  
Snow Depth 3.00 in    
Sea Level Pressure  
Sea Level Pressure 30.13 in    
Wind  
Wind Speed 7 mph (NNW)    
Max Wind Speed 15 mph    
Max Gust Speed 20 mph    
Visibility 10 miles    
Events Rain    
T = Trace of Precipitation, MM = Missing Value Source: NWS Daily Summary

Daily Weather History Graph

Daily Weather History Graph

Search for Another Location

Airport or City:

Trip Planner

Search our weather history database for the weather conditions in past years. The results will help you decide how hot, cold, wet, or windy it might be!

Date:

Astronomy

Dec. 23, 2012 Rise Set
Actual Time 8:04 AM CST 4:59 PM CST
Civil Twilight 7:31 AM CST 5:32 PM CST
Nautical Twilight 6:54 AM CST 6:08 PM CST
Astronomical Twilight 6:19 AM CST 6:43 PM CST
Moon 1:54 PM CST (12/23) 3:43 AM CST (12/23)
Length of Visible Light 10h 00m
Length of Day
8h 55m
Waxing Gibbous, 82% of the Moon is Illuminated
Dec 23
Waxing Gibbous
Dec 28
Full
Jan 4
Last Quarter
Jan 11
New
Jan 18
First Quarter

Hourly Weather History & Observations

Time (CST) Temp. Windchill Dew Point Humidity Pressure Visibility Wind Dir Wind Speed Gust Speed Precip Events Conditions
12:53 AM 6.1 °F -7.8 °F 1.9 °F 83% 30.17 in 10.0 mi NNW 9.2 mph - N/A   Clear
1:53 AM 6.1 °F -7.8 °F 1.9 °F 83% 30.18 in 10.0 mi NW 9.2 mph - N/A   Clear
2:53 AM 3.0 °F -10.5 °F -0.9 °F 84% 30.19 in 10.0 mi NNW 8.1 mph - N/A   Clear
3:53 AM 3.9 °F -6.9 °F -0.0 °F 84% 30.19 in 10.0 mi NNW 5.8 mph - N/A   Clear
4:53 AM 1.0 °F -6.7 °F -2.0 °F 87% 30.19 in 10.0 mi NNW 3.5 mph - N/A   Clear
5:53 AM 1.0 °F -10.3 °F -2.9 °F 83% 30.17 in 10.0 mi North 5.8 mph - N/A   Clear
6:53 AM 1.0 °F -8.7 °F -2.9 °F 83% 30.17 in 10.0 mi North 4.6 mph - N/A   Clear
7:53 AM 1.0 °F - -2.9 °F 83% 30.17 in 10.0 mi Calm Calm - N/A   Partly Cloudy
8:53 AM 1.0 °F - -2.9 °F 83% 30.17 in 10.0 mi Calm Calm - N/A   Clear
9:53 AM 1.9 °F -7.6 °F -2.9 °F 80% 30.14 in 10.0 mi East 4.6 mph - N/A   Clear
10:53 AM 7.0 °F 0.1 °F 1.0 °F 77% 30.15 in 10.0 mi NE 3.5 mph - N/A   Clear
11:53 AM 10.0 °F -1.9 °F 3.9 °F 76% 30.12 in 10.0 mi ESE 8.1 mph - N/A   Clear
12:43 PM 10.4 °F -0.4 °F 5.0 °F 79% 30.02 in 10.0 mi East 6.9 mph - N/A   Mostly Cloudy
12:53 PM 12.0 °F 0.5 °F 6.1 °F 77% 30.11 in 10.0 mi ESE 8.1 mph - N/A   Mostly Cloudy
1:11 PM 12.2 °F 1.7 °F 6.8 °F 79% 30.02 in 10.0 mi ESE 6.9 mph - N/A   Scattered Clouds
1:53 PM 12.9 °F 2.6 °F 7.0 °F 77% 30.09 in 10.0 mi ESE 6.9 mph - N/A   Partly Cloudy
2:53 PM 14.0 °F 2.0 °F 8.1 °F 77% 30.13 in 10.0 mi NNW 9.2 mph - N/A   Mostly Cloudy
3:53 PM 12.0 °F 1.5 °F 7.0 °F 80% 30.14 in 10.0 mi NW 6.9 mph - N/A   Mostly Cloudy
4:53 PM 12.9 °F - 7.0 °F 77% 30.13 in 7.0 mi Calm Calm - N/A   Overcast
5:45 PM 48.2 °F - 46.4 °F 93% 29.89 in 2.0 mi SSE 24.2 mph 29.9 mph N/A Rain Rain
5:53 PM 12.9 °F 5.2 °F 8.1 °F 81% 30.13 in 9.0 mi West 4.6 mph - N/A   Overcast
6:53 PM 12.0 °F -1.3 °F 7.0 °F 80% 30.14 in 10.0 mi West 10.4 mph - N/A   Overcast
7:53 PM 12.0 °F 1.5 °F 7.0 °F 80% 30.14 in 10.0 mi WNW 6.9 mph - 0.00 in   Overcast
8:53 PM 10.9 °F -4.1 °F 6.1 °F 81% 30.15 in 10.0 mi NW 12.7 mph - N/A   Overcast
9:53 PM 10.9 °F -3.4 °F 5.0 °F 77% 30.16 in 10.0 mi WNW 11.5 mph - N/A   Overcast
10:53 PM 10.0 °F -2.9 °F 5.0 °F 80% 30.15 in 10.0 mi WNW 9.2 mph - N/A   Overcast
11:53 PM 10.9 °F -5.4 °F 5.0 °F 77% 30.14 in 10.0 mi NW 15.0 mph - N/A   Overcast